Big Rapids, MI

11:59 PM EST on December 10, 2017 (GMT -0500)
Roben-Hood

Weather History for KRQB - February, 2014

Change the Weather History Date:

Monday, February 3, 2014

  Actual Average Record
Temperature  
Mean Temperature 4 °F -  
Max Temperature 20 °F 28 °F 51 °F (1991)
Min Temperature -13 °F 12 °F -18 °F (1978)
Degree Days  
Heating Degree Days 62    
Moisture  
Dew Point -2 °F    
Average Humidity 75    
Maximum Humidity 88    
Minimum Humidity 57    
Precipitation  
Precipitation 0.00 in - - ()
Sea Level Pressure  
Sea Level Pressure 30.27 in    
Wind  
Wind Speed 1 mph (WSW)    
Max Wind Speed 8 mph    
Max Gust Speed -    
Visibility 9 miles    
Events Snow    
Averages and records for this station are not official NWS values.
T = Trace of Precipitation, MM = Missing Value Source: NWS Daily Summary

Daily Weather History Graph

Daily Weather History Graph

Search for Another Location

Airport or City:

Trip Planner

Search our weather history database for the weather conditions in past years. The results will help you decide how hot, cold, wet, or windy it might be!

Date:

Astronomy

Feb. 03, 2014 Rise Set
Actual Time 7:56 AM EST 5:55 PM EST
Civil Twilight 7:26 AM EST 6:26 PM EST
Nautical Twilight 6:51 AM EST 7:00 PM EST
Astronomical Twilight 6:18 AM EST 7:34 PM EST
Moon 9:48 AM EST (2/3) 10:56 PM EST (2/3)
Length of Visible Light 11h 00m
Length of Day
9h 59m
Waxing Crescent, 19% of the Moon is Illuminated
Feb 3
Waxing Crescent
Feb 6
First Quarter
Feb 14
Full
Feb 22
Last Quarter
Mar 1
New

Hourly Weather History & Observations

Time (EST) Temp. Windchill Dew Point Humidity Pressure Visibility Wind Dir Wind Speed Gust Speed Precip Events Conditions
12:14 AM -3.6 °F - -8.3 °F 80% 30.22 in 10.0 mi Calm Calm - N/A   Clear
12:35 AM -6.7 °F - -11.6 °F 79% 30.24 in 10.0 mi Calm Calm - N/A   Clear
12:54 AM -6.0 °F - -10.5 °F 81% 30.25 in 10.0 mi Calm Calm - N/A   Clear
1:15 AM -7.2 °F - -12.1 °F 79% 30.23 in 10.0 mi Calm Calm - N/A   Clear
1:35 AM -5.3 °F - -9.9 °F 80% 30.22 in 10.0 mi Calm Calm - N/A   Clear
1:54 AM -7.1 °F - -12.3 °F 78% 30.23 in 10.0 mi Calm Calm - N/A   Clear
2:15 AM -10.3 °F - -15.5 °F 78% 30.23 in 10.0 mi Calm Calm - N/A   Clear
2:35 AM -8.5 °F - -13.5 °F 79% 30.23 in 10.0 mi Calm Calm - N/A   Clear
2:54 AM -9.8 °F - -15.3 °F 76% 30.24 in 10.0 mi Calm Calm - N/A   Clear
3:15 AM -9.0 °F - -14.1 °F 79% 30.25 in 10.0 mi Calm Calm - N/A   Clear
3:35 AM -11.2 °F - -16.8 °F 76% 30.25 in 10.0 mi Calm Calm - N/A   Clear
3:54 AM -9.4 °F - -14.6 °F 78% 30.25 in 10.0 mi Calm Calm - N/A   Clear
4:15 AM -13.0 °F - -18.6 °F 76% 30.25 in 10.0 mi Calm Calm - N/A   Clear
4:35 AM -12.8 °F - -18.2 °F 77% 30.24 in 7.0 mi Calm Calm - N/A   Clear
4:54 AM -11.2 °F - -16.1 °F 79% 30.25 in 10.0 mi Calm Calm - N/A   Scattered Clouds
5:15 AM -13.7 °F - -19.3 °F 76% 30.24 in 10.0 mi Calm Calm - N/A   Overcast
5:34 AM -11.4 °F - -16.4 °F 78% 30.25 in 7.0 mi Calm Calm - N/A   Overcast
5:54 AM -10.5 °F - -15.7 °F 78% 30.25 in 10.0 mi Calm Calm - N/A   Overcast
6:15 AM -9.9 °F - -15.3 °F 77% 30.24 in 10.0 mi Calm Calm - N/A Snow Light Snow
6:34 AM -9.0 °F - -14.4 °F 77% 30.25 in 7.0 mi Calm Calm - N/A Snow Light Snow
6:54 AM -8.1 °F - -13.2 °F 79% 30.25 in 7.0 mi Calm Calm - N/A Snow Light Snow
7:15 AM -7.6 °F - -12.5 °F 79% 30.25 in 7.0 mi Calm Calm - N/A Snow Light Snow
7:34 AM -6.5 °F - -11.2 °F 80% 30.26 in 10.0 mi Calm Calm - N/A Snow Light Snow
7:54 AM -5.6 °F - -10.3 °F 80% 30.27 in 5.0 mi Calm Calm - N/A Snow Light Snow
8:14 AM -4.5 °F - -9.0 °F 81% 30.27 in 5.0 mi Calm Calm - N/A Snow Light Snow
8:34 AM -4.2 °F - -8.7 °F 81% 30.27 in 7.0 mi Calm Calm - N/A   Overcast
8:55 AM -3.1 °F - -7.6 °F 81% 30.28 in 7.0 mi Calm Calm - N/A   Overcast
9:15 AM -2.2 °F - -6.5 °F 82% 30.29 in 4.0 mi Calm Calm - N/A Snow Light Snow
9:34 AM -1.3 °F - -5.4 °F 83% 30.29 in 5.0 mi Calm Calm - N/A Snow Light Snow
9:55 AM -0.4 °F - -4.5 °F 83% 30.29 in 5.0 mi Calm Calm - N/A Snow Light Snow
10:14 AM 0.7 °F - -3.5 °F 83% 30.29 in 3.0 mi Calm Calm - N/A Snow Light Snow
10:34 AM 1.9 °F - -2.0 °F 83% 30.29 in 3.0 mi Calm Calm - N/A Snow Light Snow
10:55 AM 5.5 °F - 1.9 °F 85% 30.30 in 3.0 mi Calm Calm - N/A Snow Light Snow
11:14 AM 7.7 °F - 4.5 °F 87% 30.30 in 2.5 mi Calm Calm - N/A Snow Light Snow
11:35 AM 9.7 °F - 6.6 °F 87% 30.31 in 3.0 mi Calm Calm - N/A Snow Light Snow
11:55 AM 15.6 °F 10.0 °F 8.4 °F 73% 30.29 in 7.0 mi West 3.5 mph - N/A Snow Light Snow
12:14 PM 15.4 °F 6.8 °F 6.1 °F 67% 30.27 in 7.0 mi NW 5.8 mph - N/A Snow Light Snow
12:35 PM 16.0 °F 10.4 °F 6.6 °F 67% 30.28 in 7.0 mi West 3.5 mph - N/A Snow Light Snow
12:55 PM 17.4 °F 12.1 °F 8.1 °F 67% 30.28 in 10.0 mi West 3.5 mph - N/A Snow Light Snow
1:14 PM 18.3 °F - 7.9 °F 64% 30.27 in 10.0 mi Calm Calm - N/A Snow Light Snow
1:35 PM 17.1 °F - 6.8 °F 64% 30.26 in 10.0 mi Calm Calm - N/A   Scattered Clouds
1:54 PM 18.9 °F 10.8 °F 7.2 °F 60% 30.26 in 10.0 mi WNW 5.8 mph - N/A   Scattered Clouds
2:14 PM 19.2 °F 14.1 °F 7.3 °F 60% 30.26 in 10.0 mi West 3.5 mph - N/A   Scattered Clouds
2:35 PM 20.5 °F 12.8 °F 7.9 °F 58% 30.27 in 10.0 mi WSW 5.8 mph - N/A   Clear
2:54 PM 20.3 °F 13.8 °F 7.7 °F 58% 30.26 in 10.0 mi West 4.6 mph - N/A   Clear
3:14 PM 19.9 °F 13.4 °F 7.2 °F 58% 30.27 in 10.0 mi WSW 4.6 mph - N/A   Clear
3:35 PM 20.7 °F 13.0 °F 7.5 °F 57% 30.27 in 10.0 mi WSW 5.8 mph - N/A   Clear
3:54 PM 19.6 °F 9.7 °F 7.2 °F 59% 30.27 in 10.0 mi WSW 8.1 mph - N/A   Clear
4:14 PM 20.1 °F 11.3 °F 7.2 °F 57% 30.28 in 10.0 mi WSW 6.9 mph - N/A   Clear
4:35 PM 19.4 °F 10.4 °F 7.3 °F 60% 30.27 in 10.0 mi SW 6.9 mph - N/A   Clear
4:54 PM 19.2 °F 11.3 °F 7.2 °F 59% 30.27 in 10.0 mi SW 5.8 mph - N/A   Clear
5:15 PM 18.3 °F 10.2 °F 6.6 °F 60% 30.27 in 10.0 mi SW 5.8 mph - N/A   Clear
5:35 PM 18.5 °F 10.4 °F 7.2 °F 61% 30.28 in 10.0 mi SW 5.8 mph - N/A   Clear
5:54 PM 18.0 °F 9.8 °F 7.0 °F 62% 30.29 in 10.0 mi SW 5.8 mph - N/A   Clear
6:15 PM 16.9 °F - 6.8 °F 65% 30.29 in 10.0 mi Calm Calm - N/A   Clear
6:35 PM 16.0 °F 8.8 °F 7.0 °F 68% 30.30 in 10.0 mi SW 4.6 mph - N/A   Clear
6:54 PM 14.9 °F 9.2 °F 6.8 °F 70% 30.29 in 10.0 mi SW 3.5 mph - N/A   Clear
7:15 PM 11.7 °F 5.5 °F 5.4 °F 76% 30.29 in 10.0 mi SW 3.5 mph - N/A   Clear
7:35 PM 12.4 °F 6.3 °F 6.3 °F 76% 30.29 in 10.0 mi WSW 3.5 mph - N/A   Clear
7:54 PM 11.8 °F 3.9 °F 5.9 °F 77% 30.29 in 10.0 mi WSW 4.6 mph - N/A   Clear
8:15 PM 10.4 °F - 5.4 °F 80% 30.29 in 10.0 mi Calm Calm - N/A   Clear
8:34 PM 9.3 °F - 4.5 °F 81% 30.30 in 10.0 mi Calm Calm - N/A   Clear
8:54 PM 6.4 °F - 2.8 °F 85% 30.29 in 10.0 mi Calm Calm - N/A   Clear
9:15 PM 6.4 °F - 3.6 °F 88% 30.29 in 10.0 mi Calm Calm - N/A   Clear
9:34 PM 6.8 °F - 3.6 °F 87% 30.29 in 10.0 mi Calm Calm - N/A   Clear
9:54 PM 5.7 °F - 1.9 °F 84% 30.29 in 10.0 mi Calm Calm - N/A   Clear
10:15 PM 4.3 °F - 1.0 °F 86% 30.28 in 10.0 mi Calm Calm - N/A   Clear
10:34 PM 5.0 °F - 1.9 °F 87% 30.28 in 10.0 mi Calm Calm - N/A   Clear
10:54 PM 4.5 °F - 1.0 °F 86% 30.29 in 10.0 mi Calm Calm - N/A   Clear
11:15 PM 3.9 °F - 0.3 °F 85% 30.29 in 10.0 mi Calm Calm - N/A   Clear
11:34 PM 0.9 °F - -2.9 °F 84% 30.29 in 10.0 mi Calm Calm - N/A   Clear
11:54 PM 1.9 °F - -2.0 °F 83% 30.29 in 10.0 mi Calm Calm - N/A   Clear